Flag for Germany Weather past 2 weeks in Lübeck, Schleswig-Holstein, Germany

Now
61 °F

Broken clouds.


Feels Like: 61 °F
Forecast: 49 / 57 °F
Wind: 5 mph from West

Location: Luebeck-Blankensee

Current Time: Sep 21, 2014 at 11:12:27 AM

Latest Report: Sep 21, 2014 at 10:50 AM


Visibility: 4 mi

Pressure: 29.89 "Hg

Humidity: 88%

Dew point: 57 °F

Location of LübeckLocation

Historic Weather in Lübeck — Graph

°F

Lübeck temperature yesterday

Maximum temperature yesterday: 73 °F (at 1:50 PM)
Minimum temperature yesterday: 50 °F (at 7:20 AM)
Average temperature yesterday: 62 °F

Past Weeks' High & Low Weather Summary

 TemperatureHumidityPressure
High82 °F (Sep 6, 2:50 PM)100% (Sep 7, 6:50 AM)30.24 "Hg (Sep 7, 6:50 AM)
Low50 °F (Sep 11, 6:50 AM)42% (Sep 6, 4:50 PM)29.86 "Hg (Sep 6, 3:50 PM)
Average64 °F79%30.04 "Hg
* Reported Sep 6 9:20 AM — Sep 21 9:50 AM, Lübeck, Weather by CustomWeather, © 2014

Note: Actual official high and low records may vary slightly from our data, if they occured in-between our weather recording intervals... More about our weather records

Advertising

Lübeck weather history for previous 24 hours

 ConditionsComfort  
Time TempWeatherWind HumidityBarometerVisibility
9:50 AM
Sep 21
59 °FFog.5 mph100%29.89 "Hg3 mi
9:20 AM59 °FFog.5 mph100%29.86 "Hg2 mi
8:50 AM59 °FFog.3 mph94%29.86 "Hg2 mi
8:20 AM59 °FFog.5 mph94%29.86 "Hg2 mi
7:50 AM57 °FFog.6 mph100%29.86 "Hg2 mi
7:20 AM57 °FFog.6 mph100%29.86 "Hg3 mi
6:50 AM59 °FLight rain. Overcast.6 mph94%29.86 "Hg3 mi
9:50 PM
Sep 20
59 °FFog.1 mph94%29.89 "Hg1 mi
9:20 PM61 °FFog.1 mph94%29.92 "Hg1 mi
8:50 PM61 °FFog.1 mph94%29.92 "Hg3 mi
8:20 PM63 °FClear.1 mph88%29.92 "Hg4 mi
7:50 PM63 °FClear.2 mph88%29.89 "Hg4 mi
3:20 PM72 °FScattered clouds.6 mph69%29.92 "HgN/A
2:50 PM70 °FScattered clouds.7 mph78%29.92 "HgN/A
2:20 PM70 °FScattered clouds.8 mph78%29.92 "HgN/A
1:50 PM73 °FPassing clouds.5 mph65%29.92 "HgN/A
1:20 PM72 °FPassing clouds.6 mph69%29.92 "HgN/A
12:20 PM70 °FClear.5 mph73%29.92 "Hg6 mi
11:50 AM68 °FClear.5 mph73%29.95 "Hg6 mi
11:20 AM64 °FClear.2 mph88%29.95 "Hg5 mi
Weather by CustomWeather, © 2014

See weather overviewHow to use our weather pages